Regional Weather Roundup
Issued by NWS Charleston, WV

Home | Current Version | Previous Version | Graphics & Text | Print | Product List | Glossary On
Versions: 1 2 3 4 5 6 7 8 9 10 11 12 13 14 15 16 17 18 19 20 21 22 23 24 25 26 27 28 29 30 31 32 33 34
000
ASUS41 KRLX 212010
RWRRLX
West Virginia Regional Weather Roundup
National Weather Service Charleston WV
400 PM EDT TUE OCT 21 2014

Note: "fair" indicates few or no clouds below 12,000 feet with no
significant weather and/or obstructions to visibility.

WVZ003-212100-
Northern Panhandle of West Virginia

CITY           SKY/WX    TMP DP  RH WIND       PRES   REMARKS
WHEELING       RAIN      49  46  90 NW10G21   29.93R FOG
$$

WVZ009-212100-
Northwest West Virginia

CITY           SKY/WX    TMP DP  RH WIND       PRES   REMARKS
PARKERSBURG    LGT RAIN  51  47  86 NW8G17    29.99R
$$

WVZ006-212100-
Western West Virginia

CITY           SKY/WX    TMP DP  RH WIND       PRES   REMARKS
HUNTINGTON     CLOUDY    51  42  71 W8        30.02R
$$

WVZ015-212100-
West Central West Virginia

CITY           SKY/WX    TMP DP  RH WIND       PRES   REMARKS
CHARLESTON     LGT RAIN  52  43  71 NW9G18    29.99R
$$

WVZ022-031-212100-
North Central West Virginia

CITY           SKY/WX    TMP DP  RH WIND       PRES   REMARKS
CLARKSBURG     LGT RAIN  51  49  92 W6        29.91R
MORGANTOWN     CLOUDY    54  48  80 VRB3      29.91R
$$

WVZ025-035-042-045-212100-
Southern West Virginia

CITY           SKY/WX    TMP DP  RH WIND       PRES   REMARKS
BECKLEY        PTSUNNY   47  41  80 NW14G21   29.96R
LOGAN          CLOUDY    52  41  66 NW10G18   29.99R
BLUEFIELD      CLOUDY    53  39  59 W14G20    29.95R
LEWISBURG      LGT RAIN  52  42  69 W7        29.93R
$$

WVZ047-212100-
Northern Mountains of West Virginia

CITY           SKY/WX    TMP DP  RH WIND       PRES   REMARKS
ELKINS         CLOUDY    49  48  97 CALM      29.91S
$$

WVZ052-212100-
Eastern Panhandle of West Virginia

CITY           SKY/WX    TMP DP  RH WIND       PRES   REMARKS
MARTINSBURG    LGT RAIN  55  49  80 N8        29.84S
PETERSBURG     RAIN     N/A N/A N/A CALM      29.89R
$$



USA.gov is the U.S. government's official web portal to all federal, state and local government web resources and services.